[[[{"header":{"parameterUnit":"kt","parameterCategory":2,"dx":1,"dy":1,"la1":30.253999710083008,"la2":30.299108505249023,"lo1":-89.0895004272461,"lo2":-89.04439544677734,"nx":28,"ny":28,"refTime":"2022-09-29T21:00:00:Z","depth":0,"parameterNumber":1,"parameterNumberName":"U-component_of_WINDS"},"data":[-0.8257,-0.8454,-0.8455,-0.8681,-0.872,-0.8875,-0.8932,-0.9004,-0.9062,-0.9248,-0.9355,-0.9377,-0.9437,-0.9567,-0.9684,-0.9691,-0.9745,-0.9812,-0.9811,-0.9501,-0.9459,-0.9418,-0.9374,-0.9821,-0.9822,-1.0135,-1.0138,-1.014,-0.803,-0.8071,-0.8189,-0.8306,-0.8408,-0.8342,-0.843,-0.8521,-0.8662,-0.8734,-0.884,-0.9004,-0.9134,-0.9172,-0.9298,-0.9392,-0.9371,-0.9426,-0.9424,-0.9436,-0.9102,-0.9055,-0.9441,-0.9441,-0.9441,-0.9441,-0.9441,-0.9441,-0.7618,-0.7735,-0.7806,-0.7935,-0.7994,-0.8072,-0.8185,-0.8208,-0.8326,-0.8456,-0.8434,-0.8594,-0.8669,-0.8822,-0.8873,-0.8999,-0.8939,-0.9002,-0.902,-0.9038,-0.9059,-0.8617,-0.9019,-0.9018,-0.9017,-0.9016,-0.9015,0,-0.7319,-0.7312,-0.7425,-0.754,-0.7634,-0.7723,-0.7806,-0.7875,-0.7862,-0.7959,-0.8101,-0.8183,-0.8346,-0.8481,-0.8599,-0.8641,-0.859,-0.8581,-0.8627,-0.8646,-0.8646,-0.8655,-0.8118,-0.8573,-0.8569,-0.8566,-0.8564,-0.8562,-0.691,-0.7044,-0.7119,-0.7199,-0.7244,-0.7373,-0.745,-0.7428,-0.7512,-0.7611,-0.7716,-0.7849,-0.7956,-0.8183,-0.8213,-0.8336,-0.8314,-0.8488,-0.8332,-0.8341,-0.8326,-0.8322,-0.8338,-0.8522,-0.8527,-0.8531,-0.8535,0,-0.6681,-0.6682,-0.6891,-0.6952,-0.6971,-0.7114,-0.7167,-0.7283,-0.7293,-0.7455,-0.7492,-0.7511,-0.7651,-0.7652,-0.7812,-0.7809,-0.8051,-0.8021,-0.8026,-0.8023,-0.8185,-0.8173,-0.8695,-0.8765,-0.8292,-0.8297,-0.83,0,-0.6337,-0.6514,-0.6507,-0.6628,-0.6824,-0.6798,-0.6994,-0.7023,-0.7085,-0.7213,-0.715,-0.7271,-0.7253,-0.7375,-0.737,-0.7566,-0.7594,-0.7607,-0.7606,-0.7618,-0.7618,-0.767,-0.7653,-0.7587,-0.7584,-0.7582,-0.758,0,-0.5986,-0.6186,-0.6382,-0.6429,-0.6513,-0.6605,-0.6645,-0.6714,-0.6791,-0.689,-0.6941,-0.7057,-0.7124,-0.7216,-0.7211,-0.7106,-0.7448,-0.7303,-0.7462,-0.7463,-0.7546,-0.7542,-0.7996,-0.7576,-0.7576,-0.7575,-0.7574,0,-0.5711,-0.5809,-0.6091,-0.616,-0.6214,-0.6342,-0.6456,-0.6566,-0.6644,-0.665,-0.6727,-0.6689,-0.6855,-0.6712,-0.6944,-0.681,-0.6879,-0.6904,-0.6915,-0.6939,-0.6781,-0.7047,-0.7472,-0.7521,-0.6949,-0.6943,-0.6939,0,-0.5312,-0.5595,-0.5575,-0.5843,-0.5975,-0.5898,-0.6039,-0.611,-0.6129,-0.6245,-0.6265,-0.6398,-0.6291,-0.6334,-0.6446,-0.6476,-0.6649,-0.6451,-0.6628,-0.6635,-0.6617,-0.7006,-0.7074,-0.7377,-0.6872,-0.6879,-0.6884,0,-0.5004,-0.5103,-0.5152,-0.5206,-0.5293,-0.5403,-0.5564,-0.569,-0.5769,-0.5853,-0.5992,-0.6175,-0.6104,-0.6175,-0.6156,-0.6274,-0.6531,-0.6183,-0.6185,-0.6252,-0.6836,-0.69,-0.6951,-0.6493,-0.6501,-0.6507,-0.6831,0,-0.4603,-0.4743,-0.4873,-0.4991,-0.5075,-0.5241,-0.5242,-0.5329,-0.5302,-0.5319,-0.552,-0.558,-0.5711,-0.5765,-0.5741,-0.6009,-0.5966,-0.5889,-0.5758,-0.6009,-0.6117,-0.616,-0.5597,-0.5593,-0.559,-0.5587,0,0,-0.4225,-0.4426,-0.44,-0.4555,-0.4626,-0.4544,-0.4723,-0.4781,-0.4903,-0.4954,-0.4878,-0.5148,-0.5201,-0.5447,-0.5525,-0.5575,-0.5626,-0.5538,-0.5887,-0.5921,-0.5952,-0.6067,-0.6111,-0.5581,-0.558,-0.5579,-0.5578,0,-0.4081,-0.4129,-0.4304,-0.4362,-0.4449,-0.4457,-0.4498,-0.4571,-0.4591,-0.4785,-0.472,-0.4841,-0.5056,-0.5124,-0.5186,-0.5505,-0.5454,-0.5543,-0.5718,-0.5854,-0.5892,-0.5925,-0.6046,-0.6088,-0.557,-0.557,-0.557,0,-0.3783,-0.3835,-0.3918,-0.4069,-0.4125,-0.4262,-0.4121,-0.427,-0.4373,-0.4281,-0.4477,-0.4512,-0.46,-0.4829,-0.4932,-0.4867,-0.5298,-0.516,-0.5181,-0.5195,-0.5327,-0.5373,-0.5413,-0.4882,-0.488,-0.4878,0,0,-0.3659,-0.3788,-0.3838,-0.4038,-0.4078,-0.4093,-0.4165,-0.4147,-0.4226,-0.4258,-0.4302,-0.4383,-0.4508,-0.4592,-0.471,-0.4959,-0.498,-0.5075,-0.5108,-0.5134,-0.5163,-0.5302,-0.5347,-0.4869,-0.4869,-0.4868,0,0,-0.3601,-0.3666,-0.3625,-0.3856,-0.3932,-0.3998,-0.4121,-0.4073,-0.4179,-0.4161,-0.414,-0.416,-0.4374,-0.4411,-0.4289,-0.4664,-0.4532,-0.4562,-0.4634,-0.4675,-0.4707,-0.4697,-0.4159,0,0,0,0,0,-0.3455,-0.3657,-0.3619,-0.3658,-0.385,-0.4018,-0.4042,-0.4028,-0.3935,-0.4034,-0.4063,-0.4,-0.4341,-0.4233,-0.4273,-0.4412,-0.4752,-0.4772,-0.4792,-0.4944,-0.4986,-0.5022,0,0,0,0,0,0,-0.347,-0.3518,-0.3613,-0.3687,-0.373,-0.401,-0.385,-0.3852,-0.3925,-0.391,-0.3996,-0.4003,-0.3996,-0.4211,-0.4248,-0.438,-0.4146,-0.476,-0.4777,-0.4793,-0.4958,-0.4993,-0.5023,0,0,0,0,0,-0.3482,-0.352,-0.3832,-0.3684,-0.3722,-0.3751,-0.3843,-0.3843,-0.3899,-0.3945,-0.3949,-0.3882,-0.4,-0.403,-0.4233,-0.4364,-0.4121,-0.4135,-0.4771,-0.4785,-0.4798,-0.4975,0,0,0,0,0,0,-0.3491,-0.3523,-0.3839,-0.385,-0.3607,-0.3735,-0.3754,-0.3835,-0.3929,-0.3936,-0.3829,-0.3816,-0.4005,-0.4027,-0.4051,-0.4359,-0.41,-0.4114,-0.4123,-0.4782,-0.4793,-0.4802,0,0,0,0,0,0,-0.3502,-0.3533,-0.3845,-0.3747,-0.3747,-0.3721,-0.3738,-0.3908,-0.3932,-0.3808,-0.38,-0.3822,-0.3971,-0.4027,-0.4045,-0.4311,-0.4084,-0.4097,-0.4107,-0.4113,-0.4791,-0.4799,0,0,0,0,0,0,-0.3514,-0.3541,-0.3744,-0.3744,-0.3744,-0.3866,-0.3871,-0.407,-0.3845,-0.3805,-0.3825,-0.3816,-0.3972,-0.399,-0.4041,-0.43,-0.4308,-0.4084,-0.4094,-0.41,-0.4104,0,0,0,0,0,0,0,-0.3525,-0.3352,-0.3774,-0.3742,-0.3741,-0.3952,-0.3955,-0.3958,-0.3843,-0.3835,-0.3827,-0.382,-0.4008,-0.4022,-0.4037,-0.4291,0,0,-0.4083,-0.409,0,0,0,0,0,0,0,0,-0.334,-0.3349,-0.3774,-0.3776,-0.3779,-0.3952,-0.3955,-0.3957,-0.3842,-0.3835,-0.3829,-0.3823,-0.4011,-0.4023,-0.4035,0,0,0,0,0,0,0,0,0,0,0,0,0,0,0,-0.3774,-0.3776,0,-0.3952,-0.3954,-0.3956,-0.3841,-0.3836,-0.383,-0.3825,-0.4015,-0.4025,-0.4034,0,0,0,0,0,0,0,0,0,0,0,0,0,0,0,0,0,0,0,0,0,0,0,0,0,0,0,0,0,0,0,0,0,0,0,0,0,0,0,0,0,0,0,0,0,0,0,0,0,0,0,0,0,0,0,0,0,0,0,0,0,0,0,0,0,0,0,0,0]}],[{"header":{"parameterUnit":"kt","parameterCategory":2,"dx":1,"dy":1,"la1":30.253999710083008,"la2":30.299108505249023,"lo1":-89.0895004272461,"lo2":-89.04439544677734,"nx":28,"ny":28,"refTime":"2022-09-29T21:00:00:Z","depth":0,"parameterNumber":2,"parameterNumberName":"V-component_of_WINDS"},"data":[-10.5807,-10.6118,-10.6134,-10.6494,-10.6568,-10.6816,-10.6908,-10.7029,-10.7127,-10.7421,-10.7592,-10.7634,-10.7734,-10.7938,-10.812,-10.8134,-10.8211,-10.8311,-10.831,-10.7851,-10.7788,-10.7728,-10.7657,-10.8328,-10.8329,-10.8785,-10.8789,-10.8792,-10.5468,-10.5546,-10.5741,-10.594,-10.6107,-10.6019,-10.6168,-10.6312,-10.6535,-10.6658,-10.6827,-10.7085,-10.7289,-10.7356,-10.7553,-10.7695,-10.7663,-10.7747,-10.7737,-10.7754,-10.7263,-10.7188,-10.777,-10.777,-10.7769,-10.7769,-10.7769,-10.7769,-10.4857,-10.5043,-10.5172,-10.5384,-10.5487,-10.5619,-10.5798,-10.5848,-10.6036,-10.6247,-10.6224,-10.6474,-10.6597,-10.6839,-10.6922,-10.7115,-10.7023,-10.7118,-10.7142,-10.7167,-10.7193,-10.6535,-10.7148,-10.7147,-10.7145,-10.7144,-10.7143,0,-10.4413,-10.4413,-10.4601,-10.4795,-10.4949,-10.5099,-10.5238,-10.5348,-10.5346,-10.5502,-10.5727,-10.5859,-10.6116,-10.6327,-10.6513,-10.6579,-10.6501,-10.6493,-10.6559,-10.6576,-10.6567,-10.6576,-10.5777,-10.6475,-10.6469,-10.6465,-10.6462,-10.646,-10.3798,-10.4014,-10.4154,-10.4284,-10.4364,-10.4574,-10.47,-10.4683,-10.4818,-10.4984,-10.5147,-10.5358,-10.5527,-10.5882,-10.5932,-10.6123,-10.6087,-10.6352,-10.6115,-10.6122,-10.6092,-10.6081,-10.6102,-10.6399,-10.6407,-10.6413,-10.6419,0,-10.345,-10.3472,-10.3809,-10.3926,-10.3961,-10.4187,-10.4285,-10.4468,-10.4494,-10.475,-10.4808,-10.4849,-10.5069,-10.5076,-10.5327,-10.5324,-10.5691,-10.5649,-10.5649,-10.5641,-10.5881,-10.5859,-10.6655,-10.6758,-10.6061,-10.6068,-10.6073,0,-10.2934,-10.3217,-10.3232,-10.3427,-10.3739,-10.3715,-10.4024,-10.4077,-10.4183,-10.4384,-10.4297,-10.4486,-10.4466,-10.4656,-10.4651,-10.4952,-10.4999,-10.5014,-10.501,-10.5024,-10.5022,-10.5094,-10.5062,-10.499,-10.4986,-10.4982,-10.4979,0,-10.2389,-10.2728,-10.3044,-10.3124,-10.3276,-10.3424,-10.3493,-10.3611,-10.3735,-10.3896,-10.3976,-10.4164,-10.4267,-10.4413,-10.4406,-10.4245,-10.4774,-10.455,-10.479,-10.4791,-10.4907,-10.49,-10.5603,-10.4974,-10.4973,-10.4972,-10.497,0,-10.1975,-10.2143,-10.2598,-10.2722,-10.2811,-10.3018,-10.3204,-10.3383,-10.3513,-10.3525,-10.3651,-10.3593,-10.3856,-10.3634,-10.3996,-10.3788,-10.3894,-10.3932,-10.3949,-10.3975,-10.3726,-10.4123,-10.479,-10.4861,-10.3996,-10.3988,-10.398,0,-10.1346,-10.1811,-10.1793,-10.2225,-10.244,-10.2329,-10.2558,-10.2676,-10.2711,-10.2896,-10.2931,-10.3142,-10.2978,-10.3045,-10.3223,-10.3268,-10.3538,-10.3231,-10.3496,-10.3506,-10.3467,-10.408,-10.4179,-10.4643,-10.3877,-10.3887,-10.3895,0,-10.0861,-10.1045,-10.1123,-10.1213,-10.1368,-10.1547,-10.181,-10.2015,-10.2139,-10.2281,-10.25,-10.2795,-10.2684,-10.2795,-10.2767,-10.2952,-10.3354,-10.2807,-10.2809,-10.2906,-10.3824,-10.3917,-10.3995,-10.3294,-10.3306,-10.3316,-10.3813,0,-10.0234,-10.0468,-10.068,-10.0882,-10.1021,-10.1292,-10.1303,-10.1447,-10.1407,-10.1437,-10.1758,-10.1855,-10.2061,-10.215,-10.2112,-10.2534,-10.2464,-10.2343,-10.2128,-10.253,-10.2694,-10.276,-10.1883,-10.1877,-10.1871,-10.1867,0,0,-9.9627,-9.9963,-9.9935,-10.019,-10.0306,-10.0186,-10.0474,-10.0572,-10.0774,-10.0856,-10.0736,-10.1167,-10.1252,-10.164,-10.1766,-10.1849,-10.1924,-10.1784,-10.2338,-10.2391,-10.2439,-10.2614,-10.2684,-10.1857,-10.1855,-10.1854,-10.1852,0,-9.94,-9.9494,-9.9779,-9.9881,-10.0029,-10.0047,-10.0116,-10.0241,-10.0273,-10.0588,-10.0483,-10.0675,-10.1021,-10.1124,-10.1222,-10.1737,-10.1646,-10.1798,-10.2073,-10.2284,-10.2344,-10.2396,-10.2581,-10.2647,-10.1839,-10.184,-10.184,0,-9.8925,-9.9019,-9.9158,-9.9417,-9.9512,-9.9736,-9.9514,-9.9759,-9.9924,-9.9777,-10.0091,-10.0146,-10.0285,-10.0651,-10.0815,-10.071,-10.1392,-10.1177,-10.1211,-10.1229,-10.1434,-10.1505,-10.1569,-10.0729,-10.0725,-10.0722,0,0,-9.8727,-9.8945,-9.9038,-9.9369,-9.9436,-9.9467,-9.9586,-9.9559,-9.9689,-9.9741,-9.981,-9.9937,-10.0137,-10.0269,-10.0457,-10.0857,-10.0883,-10.104,-10.1093,-10.1135,-10.1177,-10.1393,-10.1464,-10.0707,-10.0707,-10.0706,0,0,-9.8632,-9.8755,-9.8692,-9.9077,-9.9205,-9.9318,-9.9518,-9.9443,-9.9614,-9.9584,-9.9546,-9.9579,-9.992,-9.9978,-9.9781,-10.038,-10.0167,-10.0214,-10.033,-10.0396,-10.0448,-10.0427,-9.9565,0,0,0,0,0,-9.8406,-9.8739,-9.8682,-9.8748,-9.9073,-9.935,-9.9391,-9.937,-9.922,-9.9379,-9.9425,-9.9319,-9.9864,-9.9689,-9.9753,-9.9974,-10.0518,-10.0551,-10.0583,-10.0827,-10.0896,-10.0954,0,0,0,0,0,0,-9.8432,-9.8513,-9.8673,-9.88,-9.8872,-9.9338,-9.9079,-9.9082,-9.9202,-9.9178,-9.9313,-9.9323,-9.9308,-9.9654,-9.9713,-9.9923,-9.9545,-10.0531,-10.0559,-10.0585,-10.085,-10.0907,-10.0956,0,0,0,0,0,-9.8452,-9.8517,-9.9046,-9.8795,-9.8858,-9.8909,-9.9066,-9.9067,-9.9159,-9.9231,-9.9237,-9.9132,-9.9315,-9.9362,-9.9689,-9.9897,-9.9504,-9.9526,-10.0549,-10.0572,-10.0592,-10.0878,0,0,0,0,0,0,-9.8467,-9.8519,-9.9058,-9.9076,-9.8667,-9.8883,-9.8916,-9.9054,-9.9203,-9.9213,-9.9045,-9.9024,-9.9324,-9.9359,-9.9396,-9.9889,-9.9471,-9.9494,-9.9507,-10.0567,-10.0584,-10.06,0,0,0,0,0,0,-9.8484,-9.8536,-9.9067,-9.8908,-9.8908,-9.8858,-9.8888,-9.9161,-9.9206,-9.9009,-9.8996,-9.9034,-9.9266,-9.9358,-9.9387,-9.9813,-9.9446,-9.9467,-9.9482,-9.9491,-10.0581,-10.0595,0,0,0,0,0,0,-9.8505,-9.855,-9.8903,-9.8903,-9.8902,-9.9106,-9.9098,-9.9432,-9.9073,-9.9004,-9.904,-9.9024,-9.9269,-9.9297,-9.9381,-9.9797,-9.9809,-9.9446,-9.9461,-9.9471,-9.9478,0,0,0,0,0,0,0,-9.8522,-9.823,-9.895,-9.8899,-9.8898,-9.9246,-9.9251,-9.9256,-9.907,-9.9056,-9.9043,-9.9031,-9.9324,-9.9347,-9.9371,-9.9783,0,0,-9.9444,-9.9455,0,0,0,0,0,0,0,0,-9.8211,-9.8225,-9.895,-9.8954,-9.8958,-9.9247,-9.9251,-9.9255,-9.9067,-9.9057,-9.9046,-9.9036,-9.933,-9.9349,-9.9368,0,0,0,0,0,0,0,0,0,0,0,0,0,0,0,-9.8951,-9.8954,0,-9.9248,-9.9251,-9.9254,-9.9066,-9.9057,-9.9048,-9.904,-9.9335,-9.9351,-9.9367,0,0,0,0,0,0,0,0,0,0,0,0,0,0,0,0,0,0,0,0,0,0,0,0,0,0,0,0,0,0,0,0,0,0,0,0,0,0,0,0,0,0,0,0,0,0,0,0,0,0,0,0,0,0,0,0,0,0,0,0,0,0,0,0,0,0,0,0,0]}]]]